Simultaneous Nadir Overpasses (SNOs) Predictions

Prediction of SNOs between GOES-16 and NPP Satellite Orbit:

Table of predicted SNOs for the next 14.0 days since TLE Epoch: 3/10/2017
Index Date Time (GOES-16) GOES-16 Lat,Lon NPP Lat,Lon Distance(km) Time Diff (sec)
1 03/11/2017 19:20:00 0.00, -89.48 0.21, -88.46 115.86 80
2 03/13/2017 07:41:47 -0.00, -89.50 0.96, -93.73 482.77 80
3 03/14/2017 07:20:21 -0.00, -89.50 -0.04, -89.19 34.34 80
4 03/16/2017 19:23:32 0.01, -89.51 -0.08, -89.97 52.37 80
5 03/17/2017 19:07:27 0.01, -89.52 0.93, -85.43 465.23 80
6 03/19/2017 07:29:13 -0.01, -89.54 0.25, -90.70 132.48 80
7 03/20/2017 07:07:47 -0.01, -89.54 -0.76, -86.16 384.94 80
8 03/21/2017 19:29:43 0.00, -89.54 -0.43, -91.46 218.67 80
9 03/22/2017 19:13:37 0.00, -89.55 0.59, -86.93 299.28 80
10 03/24/2017 07:35:24 0.00, -89.58 0.60, -92.19 297.49 80




NCC Satellite Simultaneous Nadir Overpasses (SNOs) Prediction Service
